Stations météo

Publicité
Dunkerque, France (7010): Température de l'air & dewpoint: 20.09.2020 04:00:00 - 26.09.2020 04:00:00 (CEST)Dunkerque, France (7010): Vitesse du vent & gusts: 20.09.2020 04:00:00 - 26.09.2020 04:00:00 (CEST)Dunkerque, France (7010): Direction du vent: 20.09.2020 04:00:00 - 26.09.2020 04:00:00 (CEST)Dunkerque, France (7010): reduced air pressure: 20.09.2020 04:00:00 - 26.09.2020 04:00:00 (CEST)Dunkerque, France (7010): visibility: 20.09.2020 04:00:00 - 26.09.2020 04:00:00 (CEST)Dunkerque, France (7010): Quantités de précipitations: 20.09.2020 04:00:00 - 26.09.2020 04:00:00 (CEST)
Date & Time tt [°C] td [°C] ff [km/h] ff [knt] fx [km/h] fx [knt] dd ppp [hPa] vv [km] rr [mm]
26.09.2020 04:00:00 11,9 8,2 60 33 95 51 WNW 1002,9 - 0,0
26.09.2020 03:00:00 12,5 8,4 61 33 94 51 NW 1002,7 - 0,0
26.09.2020 02:00:00 12,7 8,2 63 34 103 56 WNW 1002,8 - 0,0
26.09.2020 01:00:00 12,8 7,5 72 39 97 53 WNW 1002,5 - 0,0
26.09.2020 00:00:00 13,1 7,7 65 35 101 55 WNW 1002,6 - 0,0
25.09.2020 23:00:00 13,4 6,0 67 36 104 56 WNW 1002,2 - 0,0
25.09.2020 22:00:00 13,5 6,1 58 32 98 53 NW 1002,3 10 0,0
25.09.2020 21:00:00 13,8 7,3 65 35 106 57 WNW 1001,7 10 0,0
25.09.2020 20:00:00 13,4 7,6 68 37 105 57 NW 1001,0 10 0,0
25.09.2020 19:00:00 12,8 8,3 71 39 112 61 WNW 1000,3 10 0,0
25.09.2020 18:00:00 13,5 7,0 67 36 101 55 WNW 1000,0 10 0,0
25.09.2020 17:00:00 13,0 7,9 63 34 99 53 WNW 999,6 10 0,2
25.09.2020 16:00:00 12,7 9,1 63 34 95 52 WNW 999,2 10 0,2
25.09.2020 15:00:00 12,4 8,5 56 30 83 45 WNW 998,7 10 0,6
25.09.2020 14:00:00 12,5 9,0 52 28 75 41 WNW 998,2 10 0,0
25.09.2020 13:00:00 12,7 7,8 47 25 71 38 NW 997,5 10 0,0
25.09.2020 12:00:00 12,5 8,4 42 23 63 34 WNW 996,8 10 0,0
25.09.2020 11:00:00 11,6 8,3 40 22 66 36 WNW 996,2 9 -
25.09.2020 10:00:00 11,7 8,7 34 18 53 29 NW 995,3 10 1,2
25.09.2020 09:00:00 9,8 8,9 11 6 24 13 SW 995,0 10 0,6
25.09.2020 08:00:00 9,0 7,6 15 8 22 12 SSW 994,4 10 0,0
25.09.2020 07:00:00 8,9 7,3 14 8 27 15 SW 994,5 10 0,0
25.09.2020 06:00:00 8,8 7,2 19 10 32 17 SSW 994,2 10 0,0
25.09.2020 05:00:00 9,3 7,4 24 13 41 22 SSW 994,1 15 0,0
25.09.2020 04:00:00 9,1 7,5 27 15 40 22 SSW 994,2 - 0,0
25.09.2020 03:00:00 9,0 7,9 15 8 33 18 SSW 994,3 - 0,0
25.09.2020 02:00:00 9,5 8,3 18 10 28 15 S 994,6 15 0,6
25.09.2020 01:00:00 9,7 8,6 15 8 26 14 SW 995,4 - 1,8
25.09.2020 00:00:00 9,9 9,0 12 6 32 17 SSW 995,1 - 0,2
24.09.2020 23:00:00 10,7 8,8 16 9 45 25 WSW 995,5 15 0,4
24.09.2020 22:00:00 10,9 9,8 14 7 21 11 S 995,2 10 0,0
24.09.2020 21:00:00 11,2 9,6 7 4 39 21 SE 994,5 10 1,0
24.09.2020 20:00:00 11,8 10,2 29 16 53 28 W 996,0 15 4,9
24.09.2020 19:00:00 14,7 10,3 12 6 21 11 S 995,6 8 0,0
24.09.2020 18:00:00 15,2 9,3 17 9 26 14 SSW 996,7 10 0,0
24.09.2020 17:00:00 15,4 10,2 19 11 31 17 SW 997,8 10 0,0
24.09.2020 16:00:00 13,7 10,5 16 9 34 19 SSW 998,5 10 0,2
24.09.2020 15:00:00 13,1 10,5 22 12 38 20 SSW 999,3 10 0,2
24.09.2020 14:00:00 11,8 9,2 24 13 55 30 SW 1000,0 10 0,6
24.09.2020 13:00:00 11,6 9,7 26 14 59 32 SW 1000,2 10 1,4
24.09.2020 12:00:00 15,2 10,2 36 19 58 31 SSW 999,6 5 0,0
24.09.2020 11:00:00 14,2 9,6 28 15 51 27 SSW 1000,0 15 0,0
24.09.2020 10:00:00 13,5 8,8 29 16 50 27 SSW 1000,1 10 0,0
24.09.2020 09:00:00 12,0 9,0 30 16 49 26 SSW 1000,5 10 0,0
24.09.2020 08:00:00 11,6 9,7 25 14 40 22 SSW 1001,1 10 0,0
24.09.2020 07:00:00 11,7 9,1 18 10 26 14 SSW 1001,2 10 0,0
24.09.2020 06:00:00 11,8 8,1 11 6 24 13 S 1001,5 10 0,0
24.09.2020 05:00:00 12,9 7,8 16 9 36 19 SW 1001,8 15 0,0
24.09.2020 04:00:00 13,9 7,2 17 9 53 29 SW 1001,5 - 0,0
24.09.2020 03:00:00 14,1 8,1 20 11 49 26 WSW 1000,9 - 0,0
24.09.2020 02:00:00 14,6 8,8 23 12 68 37 WSW 1000,1 - 0,0
24.09.2020 01:00:00 15,1 10,1 30 16 56 30 WSW 999,4 - 0,0
24.09.2020 00:00:00 14,4 11,0 22 12 45 24 SW 998,9 - 0,0
23.09.2020 23:00:00 15,2 12,5 23 12 49 27 SW 999,0 8 0,6
23.09.2020 22:00:00 15,9 14,9 27 14 44 24 SSW 998,8 10 2,2
23.09.2020 21:00:00 15,5 14,2 20 11 36 19 SSW 998,8 10 1,5
23.09.2020 20:00:00 15,9 14,3 24 13 46 25 SW 999,5 10 4,6
23.09.2020 19:00:00 17,7 15,0 17 9 32 17 SSW 999,7 10 0,2
23.09.2020 18:00:00 18,7 14,4 20 11 37 20 SSW 1000,2 10 0,2
23.09.2020 17:00:00 18,8 14,3 16 9 37 20 SSW 1001,2 10 0,0
23.09.2020 16:00:00 19,0 14,5 22 12 36 19 SSW 1002,1 10 0,0
23.09.2020 15:00:00 18,7 14,4 24 13 41 22 SW 1002,6 10 0,0
23.09.2020 14:00:00 18,1 16,3 19 10 42 23 SW 1003,0 10 0,2
23.09.2020 13:00:00 16,6 15,6 20 11 36 19 SW 1003,3 10 3,6
23.09.2020 12:00:00 17,4 15,9 19 11 36 19 SSW 1003,5 10 0,4
23.09.2020 11:00:00 17,3 16,0 14 8 40 21 SSW 1003,6 6 1,2
23.09.2020 10:00:00 17,5 14,8 24 13 36 19 SSW 1003,5 10 0,0
23.09.2020 09:00:00 16,5 14,7 21 11 31 17 SSW 1003,5 10 0,0
23.09.2020 08:00:00 15,6 14,5 14 7 23 12 S 1004,0 10 0,0
23.09.2020 07:00:00 15,5 14,4 16 9 25 14 S 1004,1 10 0,0
23.09.2020 06:00:00 15,1 14,3 11 6 19 10 S 1004,6 7 0,0
23.09.2020 05:00:00 15,2 14,2 13 7 21 11 S 1005,2 10 0,0
23.09.2020 04:00:00 15,7 14,6 11 6 23 12 SSW 1005,6 - 0,0
23.09.2020 03:00:00 16,0 14,7 13 7 21 11 SSW 1006,1 - 0,0
23.09.2020 02:00:00 15,8 14,5 16 8 20 11 S 1006,0 10 0,0
23.09.2020 01:00:00 15,8 14,2 13 7 17 9 SSW 1006,6 - 0,0
23.09.2020 00:00:00 16,5 14,3 11 6 23 13 SSW 1007,1 - 0,0
22.09.2020 23:00:00 17,2 14,7 15 8 25 14 SW 1007,6 10 0,0
22.09.2020 22:00:00 17,2 14,5 14 7 36 19 SW 1007,8 8 0,0
22.09.2020 21:00:00 18,2 14,5 18 10 32 18 WSW 1007,8 10 0,0
22.09.2020 20:00:00 19,8 13,0 11 6 21 11 SW 1007,8 10 0,0
22.09.2020 19:00:00 19,9 15,3 11 6 31 17 WSW 1007,6 10 0,0
22.09.2020 18:00:00 20,4 15,2 21 11 31 17 W 1008,0 10 0,0
22.09.2020 17:00:00 20,3 14,0 15 8 22 12 W 1008,8 15 0,0
22.09.2020 16:00:00 20,9 15,7 12 7 19 11 WNW 1009,4 10 0,0
22.09.2020 15:00:00 20,6 14,7 13 7 17 9 WNW 1010,0 10 0,0
22.09.2020 14:00:00 20,0 12,0 7 4 13 7 N 1010,7 6 0,0
22.09.2020 13:00:00 19,9 12,9 9 5 18 10 N 1011,2 10 0,0
22.09.2020 12:00:00 20,5 8,5 8 5 15 8 SSW 1011,9 10 0,0
22.09.2020 11:00:00 18,0 11,5 8 5 13 7 SSW 1012,4 10 0,0
22.09.2020 10:00:00 14,3 12,3 8 5 11 6 SSW 1012,4 10 0,0
22.09.2020 09:00:00 12,1 11,8 5 3 11 6 SSW 1012,5 10 0,0
22.09.2020 08:00:00 10,7 10,5 7 4 11 6 SSW 1012,6 2,0 0,2
22.09.2020 07:00:00 10,7 10,5 9 5 12 6 S 1012,7 7 0,0
22.09.2020 06:00:00 11,2 11,0 8 4 11 6 SSW 1012,9 4,5 0,0
22.09.2020 05:00:00 10,9 10,4 6 3 12 7 S 1013,3 15 0,0
22.09.2020 04:00:00 11,9 11,1 8 4 10 5 SSW 1013,8 - 0,0
22.09.2020 03:00:00 14,1 12,7 3 2 5 3 WSW 1014,2 - 0,2
22.09.2020 02:00:00 15,9 14,3 0 0 8 4 N 1014,8 15 0,0
22.09.2020 01:00:00 16,3 14,8 6 3 8 4 NW 1015,2 - 0,0
22.09.2020 00:00:00 16,2 14,7 2 1 4 2 W 1015,4 - 0,0
21.09.2020 23:00:00 16,4 14,6 4 2 11 6 N 1015,6 - 0,0
21.09.2020 22:00:00 16,9 14,7 6 4 12 7 N 1015,8 9 0,0
21.09.2020 21:00:00 17,1 14,7 8 4 13 7 N 1015,7 10 0,0
21.09.2020 20:00:00 17,6 15,2 8 5 16 9 N 1015,5 10 0,0
21.09.2020 19:00:00 18,4 15,1 13 7 18 10 N 1015,8 10 0,0
21.09.2020 18:00:00 19,1 15,2 12 6 18 10 N 1016,0 10 0,0
21.09.2020 17:00:00 19,6 15,7 11 6 19 11 N 1016,3 12 0,0
21.09.2020 16:00:00 19,7 15,1 13 7 21 11 N 1016,7 10 0,0
21.09.2020 15:00:00 19,6 15,5 13 7 21 11 N 1017,0 10 0,0
21.09.2020 14:00:00 19,9 16,1 13 7 20 11 N 1017,4 12 0,0
21.09.2020 13:00:00 19,9 15,5 11 6 16 9 N 1017,5 10 0,0
21.09.2020 12:00:00 19,2 14,5 10 5 13 7 WNW 1017,7 10 0,0
21.09.2020 11:00:00 18,1 12,8 4 2 8 4 WNW 1017,8 7 0,0
21.09.2020 10:00:00 16,6 11,5 4 2 9 5 SSW 1017,7 10 0,0
21.09.2020 09:00:00 14,7 12,0 5 3 8 4 S 1017,5 8 0,0
21.09.2020 08:00:00 13,6 11,8 6 3 8 4 S 1017,2 5 0,0
21.09.2020 07:00:00 14,7 12,6 4 2 6 4 S 1017,2 4,5 0,0
21.09.2020 06:00:00 15,6 12,7 3 1 18 10 SSW 1017,0 8 0,0
21.09.2020 05:00:00 16,9 13,2 16 9 22 12 ENE 1017,0 - 0,0
21.09.2020 04:00:00 17,4 13,5 17 9 23 13 NE 1017,3 - 0,0
21.09.2020 03:00:00 17,3 13,0 17 9 24 13 NE 1017,6 - 0,0
21.09.2020 02:00:00 17,4 13,3 18 10 25 13 NE 1017,9 - 0,0
21.09.2020 01:00:00 17,4 13,1 16 9 26 14 ENE 1017,8 - 0,0
21.09.2020 00:00:00 17,5 14,8 18 10 29 16 NE 1018,0 - 0,0
20.09.2020 23:00:00 17,7 14,6 22 12 31 17 NE 1018,0 20 0,0
20.09.2020 22:00:00 17,7 14,0 21 12 31 17 NE 1018,3 10 0,0
20.09.2020 21:00:00 17,7 13,6 22 12 35 19 NE 1018,2 10 0,0
20.09.2020 20:00:00 17,9 13,8 26 14 37 20 NNE 1017,8 10 0,0
20.09.2020 19:00:00 18,5 14,2 26 14 36 19 NNE 1017,3 10 0,0
20.09.2020 18:00:00 19,2 14,2 22 12 31 17 NNE 1017,3 10 0,0
20.09.2020 17:00:00 19,6 13,5 23 13 29 16 NNE 1017,3 10 0,0
20.09.2020 16:00:00 20,3 13,5 23 13 31 17 NNE 1017,3 10 0,0
20.09.2020 15:00:00 19,9 13,4 23 12 33 18 NE 1017,3 10 0,0
20.09.2020 14:00:00 19,6 13,1 26 14 32 18 NE 1017,6 12 0,0
20.09.2020 13:00:00 19,5 12,7 24 13 38 20 ENE 1017,6 10 0,0
20.09.2020 12:00:00 19,5 13,2 28 15 37 20 NE 1017,7 10 0,0
20.09.2020 11:00:00 19,1 13,7 23 12 33 18 NE 1017,6 20 0,0
20.09.2020 10:00:00 18,6 13,7 26 14 36 19 NE 1017,0 10 0,0
20.09.2020 09:00:00 17,8 13,7 24 13 34 18 NE 1016,7 10 0,0
20.09.2020 08:00:00 17,7 14,0 26 14 32 18 ENE 1016,2 10 0,0
20.09.2020 07:00:00 17,8 13,9 24 13 30 16 ENE 1016,0 10 0,0
20.09.2020 06:00:00 18,1 12,8 24 13 31 17 ENE 1015,7 10 0,0
20.09.2020 05:00:00 18,4 13,9 23 12 31 17 ENE 1015,7 - 0,0
20.09.2020 04:00:00 18,3 14,8 22 12 29 16 ENE 1015,7 - 0,0

tt = Température de l'air
td = dewpoint
ff = Vitesse du vent
fx = gusts
dd = Direction du vent
ppp = reduced air pressure
vv = visibility
rr = Quantités de précipitations

stations d'obs. à proximité